Location: Hilton Head Island
(32.2163°N, 80.7526°W)
Time: 15:36:18
(UTC-05:00)

Explorer 11/Cluster Stage 4 - Pass Details

Date: 18 February 2026
Orbit: 463 x 1176 km, 28.8° (Epoch: 6 March)

Event Time Altitude Azimuth Distance (km) Brightness Sun altitude
Rises 13:06:04 0° 242° (WSW) 2,908 9.9 45.8°
Reaches altitude 10° 13:08:44 10° 233° (SW) 1,890 9.2 45.7°
Maximum altitude 13:12:37 34° 168° (SSE) 872 8.4 45.5°
Drops below altitude 10° 13:16:03 10° 102° (ESE) 1,661 8.4 45.4°
Sets 13:18:15 0° 92° (E) 2,500 9.1 45.2°
